Retour au catalogue

CubeBel-2

EU11S

ActifRadio amateurSSO
NORAD 57175·PAYLOAD·🇧🇾 Belarus

Lancé Jun 27, 2023 depuis Vostochny Cosmodrome

Loading…

Prochains Passages (prochaines 24 heures)

TLE

FraisSource: AMSAT

Époque: Sep 14, 2026, 12:18 UTC

1 57175U 23091K   26257.51318666  .00010084  00000-0  33796-3 0  9992
2 57175  97.4956 321.6116 0010154 151.2949 208.8853 15.31072605177963

Suivez CubeBel-2 en temps réel avec AllMySat

Download on the App Store